This is the latest recevied weather packets stored in our database for station/object KM4LTG. If no packets are shown the sender has not sent any weather packets the latest 1 day(s).
| Time | Temp. | Humidity | Pressure | Rain* | Wind** | Luminosity | Snow |
|---|---|---|---|---|---|---|---|
| 1778042980 | 24.44° C | 67% | 1017.6 hPa | 0 mm | - | - | - |
| 1778042725 | 24.44° C | 67% | 1017.6 hPa | 0 mm | - | - | - |
| 1778042425 | 24.44° C | 67% | 1017.6 hPa | 0 mm | - | - | - |
| 1778042140 | 24.44° C | 67% | 1017.7 hPa | 0 mm | - | - | - |
| 1778041869 | 24.44° C | 68% | 1017.6 hPa | 0 mm | - | - | - |
| 1778041610 | 24.44° C | 68% | 1017.5 hPa | 0 mm | - | - | - |
| 1778041330 | 24.44° C | 68% | 1017.6 hPa | 0 mm | - | - | - |
| 1778041075 | 25° C | 69% | 1017.4 hPa | 0 mm | - | - | - |
| 1778040785 | 24.44° C | 68% | 1017.4 hPa | 0 mm | - | - | - |
| 1778040540 | 24.44° C | 69% | 1017.5 hPa | 0 mm | - | - | - |
| 1778040275 | 24.44° C | 72% | 1017.1 hPa | 0 mm | - | - | - |
| 1778039980 | 23.89° C | 73% | 1017.1 hPa | 0 mm | - | - | - |
| 1778039681 | 23.89° C | 76% | 1017 hPa | 0 mm | - | - | - |
| 1778039420 | 23.89° C | 76% | 1017 hPa | 0 mm | - | - | - |
| 1778039140 | 23.33° C | 79% | 1017.1 hPa | 0 mm | - | - | - |
| 1778038880 | 23.33° C | 79% | 1017.1 hPa | 0 mm | - | - | - |
| 1778038329 | 23.33° C | 79% | 1017.3 hPa | 0 mm | - | - | - |
| 1778038077 | 23.33° C | 79% | 1017.3 hPa | 0 mm | - | - | - |
| 1778037540 | 23.33° C | 79% | 1017.4 hPa | 0 mm | - | - | - |
| 1778037293 | 23.33° C | 79% | 1017.3 hPa | 0 mm | - | - | - |
| 1778037051 | 23.33° C | 79% | 1017.3 hPa | 0 mm | - | - | - |
| 1778036790 | 23.33° C | 79% | 1017.2 hPa | 0 mm | - | - | - |
| 1778036495 | 23.33° C | 78% | 1017.2 hPa | 0 mm | - | - | - |
| 1778036240 | 23.89° C | 78% | 1017.3 hPa | 0 mm | - | - | - |
| 1778035940 | 23.89° C | 78% | 1017.2 hPa | 0 mm | - | - | - |
* Rain latest hour (hover to see other rain measurements)
** Current wind speed in m/s (hover to see current wind gust speed)